When you browse on this site, cookies collect data to enhance your experience and personalize the content and advertising you see.
Visit our Privacy Policy to learn more. By continuing to use the site, you agree to this use of cookies and data.
  • In Hungary
  • List of Countries
  • For 7 days
  • Water Temperature
  • Satellite Maps
  • Weather Map
  • News
  • Weather Widgets
  • user-avatar
    Login

    Hourly Weather Ledowo

    Today, 24 January, Thursday

    Time Temperature Precipitation Wind Pressure Humidity
    00:00 -8°C° 0 mm 4 mps 758 mmHg 74%
    01:00 -8°C° 0 mm 4 mps 759 mmHg 74%
    02:00 -8°C° 0 mm 4 mps 759 mmHg 74%
    03:00 -8°C° 0 mm 4 mps 759 mmHg 74%
    04:00 -9°C° 0 mm 4 mps 759 mmHg 74%
    05:00 -9°C° 0 mm 4 mps 759 mmHg 74%
    06:00 -9°C° 0 mm 4 mps 759 mmHg 74%
    07:00 -9°C° 0 mm 4 mps 760 mmHg 74%
    08:00 -8°C° 0 mm 4 mps 760 mmHg 72%
    09:00 -8°C° 0 mm 4 mps 761 mmHg 70%
    10:00 -8°C° 0 mm 5 mps 761 mmHg 69%
    11:00 -7°C° 0 mm 5 mps 761 mmHg 66%
    12:00 -6°C° 0 mm 5 mps 761 mmHg 63%
    13:00 -6°C° 0 mm 5 mps 761 mmHg 60%
    14:00 -6°C° 0 mm 5 mps 761 mmHg 62%
    15:00 -6°C° 0 mm 5 mps 761 mmHg 64%
    16:00 -7°C° 0 mm 5 mps 761 mmHg 66%
    17:00 -7°C° 0 mm 5 mps 761 mmHg 68%
    18:00 -7°C° 0 mm 5 mps 761 mmHg 70%
    19:00 -8°C° 0 mm 5 mps 761 mmHg 72%
    20:00 -8°C° 0 mm 5 mps 761 mmHg 73%
    21:00 -8°C° 0 mm 5 mps 762 mmHg 74%
    22:00 -8°C° 0 mm 4 mps 762 mmHg 76%
    23:00 -9°C° 0 mm 4 mps 762 mmHg 77%

    Tomorrow, 25 January, Friday

    Time Temperature Precipitation Wind Pressure Humidity
    00:00 -8°C° 0 mm 3 mps 762 mmHg 77%
    01:00 -8°C° 0 mm 3 mps 762 mmHg 78%
    02:00 -8°C° 0 mm 3 mps 761 mmHg 79%
    03:00 -8°C° 0 mm 3 mps 761 mmHg 79%
    04:00 -8°C° 0 mm 2 mps 761 mmHg 80%
    05:00 -8°C° 0 mm 2 mps 761 mmHg 80%
    06:00 -8°C° 0 mm 2 mps 761 mmHg 81%
    07:00 -8°C° 0 mm 2 mps 761 mmHg 81%
    08:00 -8°C° 0 mm 2 mps 761 mmHg 79%
    09:00 -7°C° 0 mm 2 mps 761 mmHg 77%
    10:00 -7°C° 0 mm 2 mps 761 mmHg 75%
    11:00 -4°C° 0 mm 1 mps 761 mmHg 72%
    12:00 -4°C° 0 mm 1 mps 761 mmHg 70%
    13:00 -3°C° 0 mm 1 mps 761 mmHg 67%
    14:00 -3°C° 0 mm 1 mps 761 mmHg 70%
    15:00 -3°C° 0 mm 1 mps 761 mmHg 72%
    16:00 -3°C° 0 mm 1 mps 761 mmHg 74%
    17:00 -3°C° 0 mm 1 mps 761 mmHg 76%
    18:00 -3°C° 0 mm 1 mps 761 mmHg 78%
    19:00 -5°C° 0 mm 2 mps 761 mmHg 79%
    20:00 -5°C° 0 mm 2 mps 760 mmHg 79%
    21:00 -5°C° 0 mm 3 mps 760 mmHg 79%
    22:00 -5°C° 0 mm 3 mps 760 mmHg 79%
    23:00 -5°C° 0 mm 4 mps 760 mmHg 80%

    Day after tomorrow, 26 January, Saturday

    Time Temperature Precipitation Wind Pressure Humidity
    00:00 -5°C° 0 mm 4 mps 760 mmHg 80%
    01:00 -5°C° 0 mm 4 mps 759 mmHg 80%
    02:00 -6°C° 0 mm 5 mps 759 mmHg 78%
    03:00 -6°C° 0 mm 5 mps 758 mmHg 76%
    04:00 -8°C° 0 mm 6 mps 757 mmHg 75%
    05:00 -8°C° 0.1 mm 6 mps 756 mmHg 75%
    06:00 -8°C° 0.1 mm 6 mps 755 mmHg 76%
    07:00 -8°C° 0.1 mm 6 mps 755 mmHg 76%
    08:00 -8°C° 1.1 mm 6 mps 754 mmHg 81%
    09:00 -8°C° 1.1 mm 7 mps 753 mmHg 86%
    10:00 -8°C° 1.1 mm 7 mps 752 mmHg 91%
    11:00 -8°C° 0.8 mm 7 mps 751 mmHg 91%
    12:00 -6°C° 0.8 mm 6 mps 750 mmHg 91%
    13:00 -6°C° 0.8 mm 5 mps 749 mmHg 91%
    14:00 -5°C° 0.1 mm 5 mps 749 mmHg 92%
    15:00 -5°C° 0.1 mm 5 mps 750 mmHg 92%
    16:00 -4°C° 0.1 mm 5 mps 750 mmHg 93%
    17:00 -4°C° 0 mm 4 mps 750 mmHg 92%
    18:00 -5°C° 0 mm 4 mps 751 mmHg 91%
    19:00 -6°C° 0 mm 3 mps 751 mmHg 91%
    20:00 -6°C° 0 mm 3 mps 752 mmHg 90%
    21:00 -7°C° 0 mm 4 mps 752 mmHg 90%
    22:00 -5°C° 0 mm 4 mps 752 mmHg 90%
    23:00 -5°C° 0 mm 4 mps 752 mmHg 89%

    27 January, Sunday

    Time Temperature Precipitation Wind Pressure Humidity
    00:00 -5°C° 0 mm 4 mps 752 mmHg 89%
    01:00 -5°C° 0 mm 5 mps 752 mmHg 88%
    02:00 -5°C° 0.1 mm 5 mps 751 mmHg 90%
    03:00 -5°C° 0.1 mm 5 mps 751 mmHg 91%
    04:00 -5°C° 0.1 mm 6 mps 750 mmHg 92%
    05:00 -4°C° 0.2 mm 6 mps 750 mmHg 92%
    06:00 -4°C° 0.2 mm 6 mps 749 mmHg 93%
    07:00 -3°C° 0.2 mm 6 mps 749 mmHg 93%
    08:00 -3°C° 0.1 mm 6 mps 749 mmHg 94%
    09:00 -2°C° 0.1 mm 6 mps 748 mmHg 94%
    10:00 -2°C° 0.1 mm 6 mps 748 mmHg 94%
    11:00 -2°C° 0.1 mm 6 mps 747 mmHg 95%
    12:00 -1°C° 0.1 mm 6 mps 747 mmHg 95%
    13:00 -1°C° 0.1 mm 6 mps 746 mmHg 96%
    14:00 -1°C° 0.1 mm 6 mps 745 mmHg 95%
    15:00 -1°C° 0.1 mm 6 mps 745 mmHg 94%
    16:00 -1°C° 0.1 mm 6 mps 744 mmHg 93%
    17:00 -1°C° 0.1 mm 6 mps 744 mmHg 92%
    18:00 -1°C° 0.1 mm 7 mps 744 mmHg 91%
    19:00 -1°C° 0.1 mm 7 mps 743 mmHg 91%
    20:00 -1°C° 0 mm 7 mps 743 mmHg 90%
    21:00 -1°C° 0 mm 7 mps 743 mmHg 89%
    22:00 -1°C° 0 mm 7 mps 743 mmHg 87%
    23:00 -1°C° 0 mm 7 mps 743 mmHg 87%

    28 January, Monday

    Time Temperature Precipitation Wind Pressure Humidity
    00:00 -1°C° 0 mm 7 mps 742 mmHg 86%
    01:00 -1°C° 0 mm 7 mps 742 mmHg 86%
    02:00 -1°C° 0 mm 7 mps 741 mmHg 86%
    03:00 -1°C° 0 mm 7 mps 741 mmHg 86%
    04:00 -1°C° 0 mm 7 mps 741 mmHg 86%
    05:00 -1°C° 0 mm 8 mps 740 mmHg 86%
    06:00 -1°C° 0 mm 8 mps 740 mmHg 86%
    07:00 -1°C° 0 mm 8 mps 740 mmHg 86%
    08:00 -1°C° 0 mm 8 mps 740 mmHg 85%
    09:00 -1°C° 0 mm 8 mps 740 mmHg 85%
    10:00 -1°C° 0 mm 8 mps 740 mmHg 85%
    11:00 -1°C° 0.1 mm 8 mps 740 mmHg 86%
    12:00 -1°C° 0.1 mm 7 mps 740 mmHg 88%
    13:00 -1°C° 0.1 mm 7 mps 740 mmHg 89%
    14:00 -1°C° 0.2 mm 7 mps 740 mmHg 90%
    15:00 -1°C° 0.2 mm 8 mps 740 mmHg 92%
    16:00 -1°C° 0.2 mm 8 mps 740 mmHg 93%
    17:00 -1°C° 0 mm 8 mps 741 mmHg 91%
    18:00 -1°C° 0 mm 8 mps 741 mmHg 89%
    19:00 -1°C° 0 mm 9 mps 742 mmHg 87%
    20:00 -1°C° 0 mm 9 mps 742 mmHg 86%
    21:00 -2°C° 0 mm 10 mps 743 mmHg 84%
    22:00 -2°C° 0 mm 10 mps 743 mmHg 83%
    23:00 -2°C° 0 mm 10 mps 744 mmHg 82%

    29 January, Tuesday

    Time Temperature Precipitation Wind Pressure Humidity
    00:00 -3°C° 0 mm 11 mps 744 mmHg 82%
    01:00 -3°C° 0 mm 11 mps 744 mmHg 81%
    02:00 -3°C° 0.1 mm 11 mps 744 mmHg 81%
    03:00 -3°C° 0.1 mm 11 mps 745 mmHg 81%
    04:00 -3°C° 0.1 mm 10 mps 745 mmHg 82%
    05:00 -3°C° 0.1 mm 10 mps 745 mmHg 83%
    06:00 -3°C° 0.1 mm 10 mps 746 mmHg 84%
    07:00 -3°C° 0.1 mm 9 mps 746 mmHg 85%
    08:00 -3°C° 0.1 mm 9 mps 746 mmHg 85%
    09:00 -2°C° 0.1 mm 8 mps 747 mmHg 86%
    10:00 -2°C° 0.1 mm 8 mps 747 mmHg 86%
    11:00 -2°C° 0 mm 8 mps 748 mmHg 85%
    12:00 -2°C° 0 mm 7 mps 748 mmHg 84%
    13:00 -2°C° 0 mm 7 mps 748 mmHg 84%
    14:00 -2°C° 0 mm 7 mps 748 mmHg 84%
    15:00 -2°C° 0 mm 6 mps 748 mmHg 84%
    16:00 -3°C° 0 mm 6 mps 748 mmHg 84%
    17:00 -3°C° 0 mm 6 mps 748 mmHg 84%
    18:00 -3°C° 0 mm 6 mps 749 mmHg 84%
    19:00 -4°C° 0 mm 6 mps 749 mmHg 84%
    20:00 -4°C° 0 mm 5 mps 749 mmHg 84%
    21:00 -4°C° 0 mm 5 mps 749 mmHg 83%
    22:00 -4°C° 0 mm 5 mps 749 mmHg 83%
    23:00 -4°C° 0 mm 5 mps 749 mmHg 84%
    Show more